When you browse on this site, cookies collect data to enhance your experience and personalize the content and advertising you see.
Visit our Privacy Policy to learn more. By continuing to use the site, you agree to this use of cookies and data.
  • In United Kingdom
  • List of Countries
  • For 7 days
  • Water Temperature
  • Satellite Maps
  • Weather Map
  • Weather Widgets
  • user-avatar
    Login

    Hourly Weather Konakry

    Today, 18 November, Sunday

    Time Temperature Precipitation Wind Pressure Humidity
    00:00 +28°C° 0.7 mm 1 mps 755 mmHg 84%
    01:00 +28°C° 0.7 mm 1 mps 755 mmHg 85%
    02:00 +28°C° 0.7 mm 1 mps 755 mmHg 85%
    03:00 +28°C° 1.5 mm 1 mps 755 mmHg 86%
    04:00 +28°C° 1.5 mm 2 mps 755 mmHg 87%
    05:00 +27°C° 1.5 mm 2 mps 755 mmHg 87%
    06:00 +28°C° 0.4 mm 2 mps 755 mmHg 84%
    07:00 +29°C° 0.4 mm 2 mps 756 mmHg 81%
    08:00 +29°C° 0.4 mm 2 mps 756 mmHg 78%
    09:00 +31°C° 0 mm 2 mps 756 mmHg 71%
    10:00 +32°C° 0 mm 2 mps 756 mmHg 63%
    11:00 +34°C° 0 mm 2 mps 756 mmHg 56%
    12:00 +34°C° 0 mm 2 mps 755 mmHg 54%
    13:00 +35°C° 0 mm 3 mps 754 mmHg 52%
    14:00 +35°C° 0 mm 3 mps 754 mmHg 50%
    15:00 +34°C° 0.1 mm 3 mps 754 mmHg 53%
    16:00 +32°C° 0.1 mm 2 mps 754 mmHg 56%
    17:00 +32°C° 0.1 mm 2 mps 754 mmHg 59%
    18:00 +31°C° 0.3 mm 2 mps 754 mmHg 62%
    19:00 +30°C° 0.3 mm 2 mps 755 mmHg 65%
    20:00 +29°C° 0.3 mm 2 mps 755 mmHg 68%
    21:00 +29°C° 0.1 mm 1 mps 756 mmHg 69%
    22:00 +28°C° 0.1 mm 1 mps 756 mmHg 71%
    23:00 +28°C° 0.1 mm 1 mps 756 mmHg 72%

    Tomorrow, 19 November, Monday

    Time Temperature Precipitation Wind Pressure Humidity
    00:00 +28°C° 0 mm 2 mps 755 mmHg 72%
    01:00 +27°C° 0 mm 3 mps 755 mmHg 72%
    02:00 +27°C° 0 mm 4 mps 755 mmHg 71%
    03:00 +27°C° 0 mm 4 mps 755 mmHg 70%
    04:00 +26°C° 0 mm 4 mps 755 mmHg 69%
    05:00 +26°C° 0 mm 4 mps 755 mmHg 67%
    06:00 +27°C° 0 mm 4 mps 755 mmHg 65%
    07:00 +27°C° 0 mm 4 mps 756 mmHg 63%
    08:00 +28°C° 0 mm 4 mps 756 mmHg 61%
    09:00 +30°C° 0 mm 4 mps 756 mmHg 55%
    10:00 +32°C° 0 mm 4 mps 756 mmHg 50%
    11:00 +34°C° 0 mm 3 mps 756 mmHg 44%
    12:00 +35°C° 0 mm 3 mps 755 mmHg 42%
    13:00 +35°C° 0 mm 2 mps 754 mmHg 41%
    14:00 +35°C° 0 mm 1 mps 753 mmHg 39%
    15:00 +34°C° 0 mm 1 mps 754 mmHg 43%
    16:00 +33°C° 0 mm 1 mps 754 mmHg 48%
    17:00 +32°C° 0 mm 2 mps 754 mmHg 52%
    18:00 +31°C° 0 mm 1 mps 754 mmHg 55%
    19:00 +30°C° 0 mm 1 mps 755 mmHg 57%
    20:00 +29°C° 0 mm 1 mps 755 mmHg 59%
    21:00 +29°C° 0 mm 1 mps 756 mmHg 61%
    22:00 +28°C° 0 mm 1 mps 756 mmHg 62%
    23:00 +28°C° 0 mm 1 mps 756 mmHg 64%

    Day after tomorrow, 20 November, Tuesday

    Time Temperature Precipitation Wind Pressure Humidity
    00:00 +28°C° 0 mm 1 mps 755 mmHg 65%
    01:00 +28°C° 0 mm 1 mps 755 mmHg 65%
    02:00 +27°C° 0 mm 1 mps 754 mmHg 66%
    03:00 +27°C° 0 mm 2 mps 754 mmHg 67%
    04:00 +27°C° 0 mm 2 mps 754 mmHg 67%
    05:00 +27°C° 0 mm 2 mps 755 mmHg 68%
    06:00 +27°C° 0 mm 2 mps 755 mmHg 67%
    07:00 +27°C° 0 mm 3 mps 756 mmHg 66%
    08:00 +28°C° 0 mm 3 mps 756 mmHg 65%
    09:00 +28°C° 0 mm 3 mps 756 mmHg 63%
    10:00 +29°C° 0 mm 2 mps 756 mmHg 60%
    11:00 +30°C° 0 mm 2 mps 756 mmHg 58%
    12:00 +30°C° 0 mm 2 mps 756 mmHg 58%
    13:00 +30°C° 0 mm 2 mps 755 mmHg 57%
    14:00 +31°C° 0 mm 2 mps 754 mmHg 57%
    15:00 +30°C° 0 mm 2 mps 754 mmHg 60%
    16:00 +30°C° 0 mm 2 mps 754 mmHg 62%
    17:00 +29°C° 0 mm 2 mps 754 mmHg 65%
    18:00 +29°C° 0 mm 2 mps 755 mmHg 66%
    19:00 +28°C° 0 mm 2 mps 755 mmHg 67%
    20:00 +28°C° 0 mm 2 mps 756 mmHg 68%
    21:00 +27°C° 0 mm 2 mps 756 mmHg 68%
    22:00 +27°C° 0 mm 2 mps 756 mmHg 68%
    23:00 +27°C° 0 mm 2 mps 756 mmHg 68%

    21 November, Wednesday

    Time Temperature Precipitation Wind Pressure Humidity
    00:00 +27°C° 0 mm 2 mps 755 mmHg 69%
    01:00 +26°C° 0 mm 2 mps 755 mmHg 69%
    02:00 +26°C° 0 mm 1 mps 754 mmHg 70%
    03:00 +26°C° 0 mm 2 mps 755 mmHg 70%
    04:00 +26°C° 0 mm 2 mps 755 mmHg 70%
    05:00 +26°C° 0 mm 2 mps 755 mmHg 71%
    06:00 +27°C° 0 mm 2 mps 755 mmHg 69%
    07:00 +27°C° 0 mm 1 mps 756 mmHg 67%
    08:00 +28°C° 0 mm 1 mps 756 mmHg 65%
    09:00 +30°C° 0 mm 1 mps 756 mmHg 58%
    10:00 +32°C° 0 mm 1 mps 756 mmHg 52%
    11:00 +35°C° 0 mm 1 mps 756 mmHg 45%
    12:00 +36°C° 0 mm 2 mps 755 mmHg 44%
    13:00 +36°C° 0 mm 2 mps 755 mmHg 42%
    14:00 +37°C° 0 mm 2 mps 754 mmHg 41%
    15:00 +35°C° 0 mm 2 mps 754 mmHg 47%
    16:00 +34°C° 0 mm 3 mps 754 mmHg 53%
    17:00 +33°C° 0 mm 3 mps 754 mmHg 59%
    18:00 +31°C° 0 mm 3 mps 754 mmHg 64%
    19:00 +30°C° 0 mm 2 mps 755 mmHg 68%
    20:00 +29°C° 0 mm 2 mps 755 mmHg 73%
    21:00 +28°C° 0 mm 2 mps 755 mmHg 74%
    22:00 +28°C° 0 mm 2 mps 755 mmHg 75%
    23:00 +28°C° 0 mm 2 mps 755 mmHg 76%

    22 November, Thursday

    Time Temperature Precipitation Wind Pressure Humidity
    00:00 +28°C° 0 mm 2 mps 755 mmHg 77%
    01:00 +27°C° 0 mm 2 mps 754 mmHg 77%
    02:00 +27°C° 0 mm 2 mps 754 mmHg 78%
    03:00 +27°C° 0 mm 1 mps 754 mmHg 78%
    04:00 +27°C° 0 mm 1 mps 754 mmHg 78%
    05:00 +26°C° 0 mm 1 mps 755 mmHg 78%
    06:00 +28°C° 0 mm 1 mps 755 mmHg 74%
    07:00 +29°C° 0 mm 2 mps 756 mmHg 70%
    08:00 +30°C° 0 mm 2 mps 756 mmHg 65%
    09:00 +32°C° 0 mm 1 mps 756 mmHg 59%
    10:00 +34°C° 0 mm 1 mps 755 mmHg 53%
    11:00 +36°C° 0 mm 1 mps 755 mmHg 47%
    12:00 +37°C° 0 mm 2 mps 754 mmHg 47%
    13:00 +37°C° 0 mm 3 mps 754 mmHg 48%
    14:00 +37°C° 0 mm 3 mps 753 mmHg 48%
    15:00 +35°C° 0 mm 3 mps 753 mmHg 55%
    16:00 +33°C° 0 mm 4 mps 753 mmHg 63%
    17:00 +32°C° 0 mm 4 mps 753 mmHg 70%
    18:00 +30°C° 0 mm 3 mps 754 mmHg 74%
    19:00 +30°C° 0 mm 3 mps 754 mmHg 77%
    20:00 +29°C° 0 mm 3 mps 755 mmHg 80%
    21:00 +29°C° 0 mm 3 mps 755 mmHg 82%
    22:00 +29°C° 0 mm 2 mps 755 mmHg 83%
    23:00 +28°C° 0 mm 2 mps 755 mmHg 85%

    23 November, Friday

    Time Temperature Precipitation Wind Pressure Humidity
    00:00 +28°C° 0 mm 2 mps 755 mmHg 86%
    01:00 +28°C° 0 mm 2 mps 754 mmHg 86%
    02:00 +28°C° 0 mm 2 mps 754 mmHg 87%
    03:00 +28°C° 0.5 mm 1 mps 754 mmHg 88%
    04:00 +27°C° 0.5 mm 1 mps 754 mmHg 89%
    05:00 +27°C° 0.5 mm 1 mps 755 mmHg 89%
    06:00 +28°C° 0 mm 1 mps 755 mmHg 85%
    07:00 +29°C° 0 mm 1 mps 755 mmHg 80%
    08:00 +30°C° 0 mm 1 mps 756 mmHg 75%
    09:00 +32°C° 0 mm 1 mps 756 mmHg 70%
    10:00 +33°C° 0 mm 1 mps 755 mmHg 64%
    11:00 +35°C° 0 mm 2 mps 755 mmHg 58%
    12:00 +35°C° 0 mm 2 mps 754 mmHg 58%
    13:00 +35°C° 0 mm 2 mps 754 mmHg 58%
    14:00 +36°C° 0 mm 3 mps 753 mmHg 57%
    15:00 +34°C° 0 mm 3 mps 753 mmHg 62%
    16:00 +33°C° 0 mm 3 mps 753 mmHg 67%
    17:00 +31°C° 0 mm 3 mps 753 mmHg 72%
    18:00 +30°C° 0 mm 3 mps 753 mmHg 75%
    19:00 +30°C° 0 mm 3 mps 754 mmHg 79%
    20:00 +29°C° 0 mm 3 mps 754 mmHg 82%
    21:00 +29°C° 0 mm 2 mps 754 mmHg 83%
    22:00 +29°C° 0 mm 2 mps 754 mmHg 83%
    23:00 +28°C° 0 mm 2 mps 754 mmHg 84%
    Show more